Weather in Bystrinsk

Russia / Khabarovsk Krai     51°25′52″N   139°28′16″E
temp.,
°C
wind,
m/s
gust,
m/s
humid.,
%
clouds,
%
prec.,
mm/h
press.,
hPa
HPBL,
m
9 december, thu
thu901:00−8sw7138015 0.0 1023309
04:00−7sw816807 0.0 1023425
07:00−8ssw7128016 0.0 1023245
10:00−10s34885 0.0 102263
13:00−3sw377855 0.0 1020205
16:00−4sw467595 0.0 1018100
19:00−6ssw58775 0.0 1018126
22:00−8ssw458197 0.0 101866
10 december, fri
fri1001:00−5ssw4879100 0.0 1018158
04:00−4sw4879100 0.0 1018163
07:00−4sw4879100 0.0 1019168
10:00−5s3486100 0.0 102167
13:00−3ssw3681100 0.0 1021171
16:00−4ese1188100 0.0 102110
19:00−5nne1197100 0.3 102326
22:00−5ne1197100 1.1 102414
11 december, sat
sat1101:00−6nne2397100 0.4 102454
04:00−7nne2397100 0.6 102461
07:00−7nne2397100 0.3 102474
10:00−7nne2396100 0.9 1024147
13:00−6nne3394100 0.5 1023212
16:00−6n239799 1.1 102379
19:00−8n0197100 0.4 102211
22:00−10w0197100 0.7 102110
12 december, sun
sun1201:00−10s0097100 0.3 101911
04:00−9s0097100 0.7 101715
07:00−10ssw1197100 0.3 101510
10:00−8wsw1195100 0.7 101473
13:00−7wsw1194100 0.8 1011167
16:00−6sw1196100 1.3 100944
19:00−8ssw2297100 0.2 100714
22:00−7ssw3495100 0.3 100579
13 december, mon
mon1301:00−8sw4694100 0.1 1003146
04:00−9sw5795100 1.6 1001313
07:00−10sw5895100 3.3 999335
10:00−10sw5795100 7.6 998293
13:00−8sw3596100 6.1 998239
16:00−3nnw81391100 10.8 998868
19:00−3n91588100 1.8 1000848
22:00−3nnw81478100 2.6 1002695